Temp
9 9 9 9 9 9 9 9 9 9 9 9 9 9 9 9 9 9 9 9 9 9 9 9 9 9 9 9 9 9 9 9 8 8 8 8 8 8 8 8 8 8 8 8 8 8 8 8 8 8 8 8 9 8 8 8 8 8 8 8 8 8 8 8 8 8 8 9 9 9 8 8 8 7 8 8 8 8 8 8 8 8 7 8 8
9 9 9 9 9 9 9 9 9 9 9 9 9 9 9 9 9 9 9 9 9 9 9 9 10 9 9 9 9 9 9 9 8 8 8 8 8 8 8 8 8 8 8 8 8 8 7 8 8 8 8 8 9 8 8 8 8 9 8 8 9 8 8 8 8 8 8 8 9 9 8 8 8 7 7 8 8 8 8 8 8 7 7 7 8
9 9 9 9 9 9 9 9 9 9 9 9 9 9 9 9 9 8 9 9 9 9 9 9 10 9 9 9 9 9 9 9 8 8 8 8 8 8 8 8 8 8 8 8 8 7 7 8 8 8 8 8 9 9 8 8 8 8 8 8 8 8 8 8 8 8 8 8 9 9 8 7 8 8 7 7 8 7 7 7 7 7 7 7 7
9 9 9 9 9 9 8 8 9 9 9 9 9 9 9 9 8 8 8 9 9 9 9 9 10 9 9 9 9 9 9 9 8 8 8 8 8 8 8 8 8 8 8 8 8 7 8 8 8 8 8 8 8 8 9 9 9 8 8 8 8 7 7 7 8 8 8 8 8 9 8 7 8 8 8 7 7 7 7 7 7 7 7 7 7
10 10 9 9 9 9 8 8 9 9 9 9 9 9 9 9 8 8 8 9 9 9 9 9 9 9 9 9 9 9 9 9 8 8 8 8 8 8 8 8 8 8 8 8 7 7 8 8 8 8 8 8 8 8 8 9 9 8 8 8 8 7 7 7 7 8 8 8 8 9 9 8 8 8 8 8 7 7 7 7 7 7 7 7 7
10 10 9 9 9 9 9 9 9 9 9 9 9 9 9 9 9 9 9 9 9 9 9 9 9 9 9 9 9 9 9 9 8 8 8 8 8 8 8 8 8 7 7 7 8 8 8 8 8 8 8 8 8 8 8 8 8 8 8 7 7 7 8 8 8 8 8 8 8 9 9 8 8 8 8 8 8 8 7 7 7 7 7 7 7
10 9 9 9 9 9 9 9 9 9 9 9 9 9 9 9 9 9 9 9 9 9 9 9 9 9 9 9 9 9 9 9 8 8 8 8 8 8 8 8 7 7 7 7 8 8 8 8 8 9 9 8 8 8 8 7 7 8 8 8 8 7 8 8 8 8 8 8 8 8 9 8 8 8 8 8 8 8 8 8 7 7 7 7 7
9 9 9 9 9 9 9 9 9 9 9 9 9 9 9 9 9 9 9 9 9 9 9 9 9 9 9 9 9 9 9 8 8 8 8 8 8 8 8 7 7 7 7 8 8 8 8 8 8 8 8 8 8 8 8 7 7 8 8 8 8 8 8 8 8 8 8 8 8 8 9 8 8 8 8 8 8 8 8 8 8 7 7 7 7
9 9 9 9 9 9 9 9 9 9 9 9 9 9 9 9 9 9 9 9 9 9 9 9 9 9 9 9 9 9 9 8 8 8 8 8 8 8 8 7 7 8 8 8 8 8 8 8 8 8 8 8 8 8 8 8 8 8 8 8 8 8 9 8 8 8 8 8 8 8 8 8 8 8 8 8 8 7 7 7 7 7 7 7 7
9 9 9 9 9 9 9 9 9 9 9 9 9 9 9 9 9 9 9 9 9 9 9 9 9 9 9 9 9 9 9 8 8 8 8 8 8 7 8 8 8 8 8 8 8 8 8 8 8 8 8 8 8 8 8 8 8 8 8 8 8 8 9 9 8 8 8 7 8 8 8 8 8 8 8 8 8 7 7 7 7 7 7 7 7
9 9 9 9 9 9 9 9 9 9 9 9 9 9 9 9 9 9 9 9 9 9 9 9 9 9 9 9 9 9 9 9 8 8 8 8 8 7 8 8 8 8 8 8 8 8 8 8 8 8 8 8 8 8 8 8 8 8 8 8 8 8 8 8 8 8 8 7 7 8 8 7 7 8 8 8 8 7 7 8 8 7 7 7 8
9 9 9 9 9 9 9 9 9 9 9 9 9 9 9 9 9 9 9 9 9 9 9 9 9 9 9 9 9 9 9 9 8 8 8 8 7 8 8 8 8 8 8 8 8 8 9 9 8 8 8 8 8 8 8 8 8 8 8 8 8 8 8 8 8 8 8 8 7 8 8 8 7 8 8 8 8 8 8 8 8 8 7 7 8
9 10 9 9 9 9 9 9 9 9 9 9 9 9 9 9 9 9 9 9 9 9 9 9 9 9 9 9 9 9 9 8 8 8 8 8 7 8 8 8 8 8 8 8 8 8 8 8 8 8 8 8 8 8 8 8 8 8 8 8 8 8 8 8 8 8 7 8 8 8 8 8 8 8 9 9 8 8 8 8 8 8 8 7 7
10 10 10 9 9 9 9 9 9 9 9 9 9 9 9 9 9 9 9 9 9 9 9 9 9 9 9 9 9 9 8 8 8 8 8 7 7 8 8 8 8 8 8 8 8 8 8 8 8 8 8 8 8 8 8 8 8 8 8 8 8 8 8 8 8 8 7 7 8 8 8 8 8 9 9 9 9 8 8 8 8 8 8 8 7
10 10 10 10 10 10 10 9 9 9 9 9 9 9 9 9 9 9 9 9 9 9 9 9 9 9 9 9 9 8 8 8 8 8 8 7 7 8 8 8 8 8 8 8 8 8 8 8 8 8 8 8 8 8 8 8 8 8 8 8 8 8 8 8 8 8 8 7 7 8 8 8 8 9 9 9 9 9 8 8 8 8 8 8 7
10 10 10 10 10 10 10 10 10 9 9 9 9 9 9 9 9 9 9 9 9 9 9 9 9 9 9 9 8 8 8 8 8 8 8 8 7 8 8 8 8 8 8 8 8 7 8 8 8 9 8 8 8 8 8 8 8 8 8 8 9 9 8 8 8 9 8 8 8 8 8 8 8 8 9 9 9 9 9 9 8 8 8 8 8
10 11 10 10 10 10 10 10 9 9 9 9 9 9 9 9 9 9 9 9 9 9 9 9 9 9 9 8 8 8 8 8 8 8 8 8 8 8 8 8 8 8 8 8 8 7 7 8 8 9 8 8 8 8 9 8 8 8 8 8 9 9 9 8 8 8 9 8 8 8 8 8 8 8 8 9 9 9 9 9 9 8 8 8 7
10 10 10 10 10 9 9 9 9 9 9 9 10 10 10 9 9 9 9 9 9 9 9 9 9 9 9 8 8 8 8 8 8 8 8 8 8 8 8 8 7 7 7 7 8 8 8 8 8 8 8 9 9 9 9 8 8 8 9 9 8 9 8 8 8 8 8 8 8 8 8 8 8 8 8 8 9 9 9 9 9 9 8 8 8
10 10 10 10 10 9 10 10 9 10 9 9 9 10 10 9 9 9 9 9 9 9 9 9 9 9 8 8 8 8 8 8 8 8 8 8 8 8 8 8 8 7 7 7 7 8 8 8 8 8 8 8 9 9 8 8 8 8 8 8 8 8 8 8 8 8 8 9 8 8 9 9 8 8 8 8 9 9 9 9 10 9 9 8 8
9 10 9 9 10 10 10 10 10 10 9 9 10 10 10 10 9 9 9 9 9 9 9 9 9 8 8 8 8 8 8 8 8 8 8 8 8 8 8 8 8 7 7 7 7 8 8 8 8 8 8 8 8 8 8 8 8 8 8 8 8 8 8 8 8 8 8 8 8 9 9 9 8 8 8 8 9 9 9 9 9 10 9 9 8
9 9 9 9 10 10 10 9 9 10 10 10 10 10 10 10 9 9 9 9 9 9 9 9 9 8 8 8 8 8 8 8 8 8 8 8 8 8 8 8 8 7 7 7 7 8 8 8 8 8 8 8 8 8 8 8 8 8 8 7 8 8 8 7 7 8 8 8 8 8 8 8 8 8 8 8 8 9 9 9 9 10 10 9 9
9 9 9 9 9 9 10 10 10 10 10 10 10 10 9 10 9 9 9 9 9 9 9 9 9 8 8 8 8 8 8 8 8 8 8 8 8 8 8 8 8 8 7 8 8 8 8 8 8 8 8 8 8 8 8 8 8 7 7 7 7 7 7 7 7 8 8 8 8 8 8 8 8 8 8 8 8 8 9 9 9 9 9 10 9
10 9 9 9 10 10 10 10 10 10 10 10 10 10 10 9 9 9 9 9 9 9 9 9 9 8 8 8 8 8 8 8 8 8 8 8 8 8 8 8 8 8 8 8 8 8 8 8 8 8 8 8 8 8 8 8 8 7 8 8 8 7 7 7 7 7 8 8 8 8 8 8 8 8 8 8 8 8 9 9 9 9 9 9 9
10 10 10 10 10 10 10 10 10 10 9 9 9 10 10 9 9 9 9 9 9 9 9 9 9 8 8 8 8 8 8 8 8 8 8 8 8 8 8 8 8 8 8 8 8 8 8 8 8 8 8 8 8 8 7 7 7 8 8 8 8 8 8 7 7 7 7 7 8 8 8 8 8 8 8 8 8 8 8 9 9 9 9 9 9
10 10 10 10 10 10 10 10 10 10 9 9 9 9 10 9 9 9 9 9 9 9 9 9 9 9 8 8 8 8 8 8 8 8 8 8 8 8 8 8 8 8 8 8 8 8 8 8 8 8 8 8 8 7 7 7 7 8 8 8 8 8 8 8 7 7 7 7 8 8 8 8 8 8 8 8 8 8 8 8 9 9 9 9 9
10 10 10 10 10 10 9 9 9 10 9 9 9 9 9 9 9 9 9 9 9 9 9 9 9 8 8 8 8 8 8 8 8 8 8 8 8 8 8 8 8 8 8 8 8 8 8 8 8 8 8 8 8 7 7 7 7 7 8 8 8 8 8 8 7 7 7 7 8 8 8 8 8 8 8 8 8 8 8 8 8 9 9 9 9
10 10 10 10 10 10 10 10 10 10 10 9 9 9 9 9 9 9 9 9 9 9 9 8 8 8 8 8 8 8 8 8 8 8 8 8 8 8 8 8 8 8 8 8 8 8 8 8 8 8 8 8 8 8 8 8 7 7 7 7 8 8 8 8 8 7 7 7 8 8 8 8 8 8 8 8 8 8 8 9 9 9 9 9 9
10 10 10 10 10 10 10 10 10 10 10 9 9 9 9 9 9 9 9 9 9 9 9 8 8 8 8 8 8 8 8 8 8 8 8 9 8 9 8 8 8 8 8 8 8 8 8 8 8 8 8 8 8 8 8 8 8 7 8 8 8 8 8 8 8 8 8 8 8 8 8 8 8 8 8 8 8 8 9 9 9 8 8 8 8
10 10 11 11 11 10 11 11 11 10 10 10 9 9 9 9 9 9 9 9 9 9 9 9 8 8 8 8 9 9 8 8 8 8 8 9 9 9 9 9 9 9 8 8 8 8 8 8 8 8 8 8 8 8 8 8 8 8 8 7 8 8 8 8 8 8 8 8 8 8 8 8 8 8 8 8 8 8 9 9 8 8 7 8 8
11 11 11 11 11 11 12 12 11 11 10 10 10 9 9 9 9 9 9 9 9 9 8 8 9 9 9 9 9 9 9 9 8 8 9 9 9 9 9 9 9 9 9 8 8 8 8 8 8 8 8 8 8 8 8 8 8 8 7 8 8 8 9 9 9 8 8 8 8 8 8 8 8 8 8 8 8 9 9 8 8 8 8 8 9
11 11 11 11 12 12 11 11 11 11 11 10 10 9 9 9 9 9 9 9 9 9 9 9 9 9 9 9 9 9 9 9 9 9 9 9 9 9 9 9 9 9 8 8 8 8 8 8 8 8 8 8 8 7 7 8 8 7 8 8 9 9 9 9 9 9 8 8 8 8 8 8 8 8 8 8 8 8 8 8 8 8 8 8 8
11 11 12 12 12 11 11 11 10 11 11 10 10 10 9 9 9 9 9 9 9 9 9 9 9 9 9 9 9 9 9 9 9 9 9 9 10 10 9 9 9 8 8 8 8 8 8 8 7 7 7 7 7 7 7 8 8 8 9 9 9 9 9 10 10 9 9 8 8 8 8 8 8 8 8 8 8 8 7 8 8 8 8 8 8
11 11 12 12 12 11 10 10 10 10 11 10 10 10 9 9 9 9 9 9 9 9 9 9 9 9 9 9 9 9 9 9 9 9 9 9 9 9 9 9 9 8 9 9 8 8 8 7 7 7 7 7 7 7 8 8 8 9 9 9 10 10 10 10 10 10 9 9 8 8 8 8 8 8 8 8 8 7 7 8 8 8 8 8 8
12 12 12 12 12 11 11 11 11 11 11 10 10 10 10 10 9 9 9 9 9 9 9 10 10 9 9 9 9 9 9 9 9 9 9 9 9 9 9 9 9 9 9 8 8 8 8 7 7 7 7 7 7 7 8 8 9 9 10 10 10 10 9 9 10 10 10 9 9 8 8 9 8 8 8 8 8 8 7 8 8 8 7 7 7
12 12 12 12 12 12 12 11 11 11 10 10 10 10 10 10 9 9 9 9 9 9 9 9 9 9 9 9 9 9 9 9 9 9 9 9 9 9 9 9 9 9 9 8 8 8 8 7 7 7 7 7 7 8 8 8 9 10 10 10 10 10 9 9 9 10 10 9 9 9 9 9 9 9 8 8 8 8 8 7 8 8 8 7 7
12 12 12 12 12 12 12 12 11 11 11 10 10 10 10 10 10 10 10 9 9 9 9 9 9 9 9 9 9 9 9 9 9 9 9 9 9 9 9 9 9 9 9 8 8 8 8 7 7 7 7 8 9 9 9 9 9 9 10 10 10 9 9 9 9 9 9 9 8 8 8 8 9 9 9 9 8 8 7 7 7 7 7 7 8
12 12 12 12 12 12 12 12 11 11 11 10 10 10 10 10 10 10 10 10 10 9 9 9 10 10 10 9 10 9 9 9 9 9 9 9 9 9 9 9 9 8 8 8 8 8 8 8 7 8 8 9 10 10 10 9 9 9 10 10 9 9 9 9 9 8 8 8 7 7 8 8 8 8 8 9 9 7 7 7 7 7 7 7 7
12 12 13 12 12 12 12 12 11 11 10 10 10 10 10 10 10 10 10 10 10 9 9 9 9 10 10 10 10 10 10 10 9 9 9 9 9 9 9 9 9 8 8 8 9 8 8 9 9 9 9 10 10 10 10 9 9 9 9 9 9 9 9 8 8 7 7 7 7 7 7 7 7 7 7 8 8 8 7 7 7 7 7 7 7
13 13 13 13 13 13 12 12 11 10 10 10 10 10 10 10 10 10 10 10 10 9 9 9 9 9 10 9 10 10 10 10 9 9 9 9 9 9 9 9 9 9 8 9 9 9 10 10 10 10 10 10 10 10 10 10 9 9 9 9 9 9 8 8 7 7 6 6 7 7 7 7 7 7 7 7 7 7 7 7 7 7 7 7 7
13 13 13 13 13 13 12 12 11 10 10 10 10 10 10 10 10 10 10 10 10 10 9 10 10 9 9 10 10 10 10 10 10 9 9 9 9 9 9 8 9 9 9 9 9 10 11 11 11 11 11 10 10 10 10 9 9 8 8 9 8 8 7 7 6 6 6 6 6 7 7 7 7 7 7 7 7 7 7 7 7 7 7 7 7
13 14 14 14 14 13 12 12 11 10 10 10 10 10 10 10 10 10 10 10 10 10 9 10 10 9 9 10 10 10 10 10 9 9 9 9 9 9 9 8 8 9 9 10 10 11 11 11 11 11 11 10 10 10 10 9 9 8 8 8 8 8 6 6 6 6 6 6 7 7 7 7 7 7 7 7 7 7 7 7 7 6 7 7 7
14 14 14 14 14 13 12 12 11 10 10 10 10 10 10 10 10 10 10 10 10 10 10 10 10 10 10 9 9 10 9 9 9 9 9 9 9 9 9 8 8 9 10 10 11 11 11 11 11 11 10 10 10 10 10 9 9 7 7 8 8 7 6 6 6 6 6 6 7 7 8 7 7 7 7 7 7 7 7 7 6 6 6 7 7
14 14 14 14 14 13 13 12 11 11 11 10 10 10 10 10 10 10 10 10 10 10 10 10 10 10 10 9 9 10 9 9 9 9 9 9 9 9 9 8 8 9 10 10 10 11 11 11 11 10 10 10 10 10 9 9 9 8 8 8 7 7 6 6 6 6 6 6 6 7 8 7 7 7 7 7 7 7 7 7 6 6 6 6 7
14 14 14 14 13 13 13 12 11 11 11 11 11 10 10 10 10 10 10 10 10 10 10 10 10 10 9 9 9 10 10 10 9 9 9 9 9 9 9 9 9 10 10 10 10 10 10 10 10 10 10 10 9 9 9 9 9 9 9 8 7 7 6 6 6 6 6 6 6 7 8 7 7 7 7 7 7 7 7 7 7 7 7 7 7
14 14 13 13 13 13 12 12 11 11 11 11 11 11 10 10 10 10 10 10 10 10 10 10 10 10 9 9 10 10 10 10 9 9 9 9 9 9 9 10 10 10 10 11 11 10 10 10 10 10 10 9 9 9 9 9 9 9 9 8 7 7 6 6 6 6 6 6 5 6 7 7 7 7 7 6 6 6 7 7 7 7 7 7 7
14 14 13 13 13 12 12 12 12 11 11 11 11 11 11 10 10 10 10 10 10 10 9 10 10 10 10 10 10 10 10 10 10 10 9 10 10 10 10 10 10 11 11 11 11 11 10 10 10 10 10 9 9 9 9 9 9 9 9 8 8 7 6 6 6 6 6 5 5 5 6 7 7 7 6 6 6 6 6 6 7 7 7 7 7
14 13 13 13 12 12 12 12 12 11 11 11 11 11 11 11 10 10 10 10 10 10 10 10 10 10 10 10 10 10 10 10 10 10 10 10 10 10 10 11 11 11 11 11 11 10 10 10 10 10 9 9 9 9 8 8 8 8 8 8 8 7 7 6 6 6 6 6 5 5 4 5 7 7 6 6 6 6 6 6 6 6 7 7 7
13 13 13 13 13 12 12 12 12 12 12 12 11 11 11 11 11 11 11 11 10 10 10 10 10 10 10 10 10 10 10 10 10 10 10 10 10 10 11 10 11 11 10 10 10 10 10 10 10 10 9 9 9 9 8 8 8 8 7 7 7 7 7 7 7 6 6 6 5 5 4 5 5 6 6 6 6 6 6 6 6 6 7 7 7
13 13 13 13 13 12 12 12 12 12 12 12 12 12 11 11 11 11 11 11 11 11 11 10 10 10 10 10 10 10 10 10 10 10 10 10 10 10 10 10 10 10 10 10 10 10 10 10 10 10 10 9 9 9 8 8 8 7 6 6 6 6 6 6 6 6 6 6 5 5 5 5 4 4 5 6 6 6 6 6 6 6 6 7 7
13 13 13 13 13 13 13 13 13 13 13 12 12 12 12 11 12 11 11 11 11 11 11 10 10 10 10 10 10 10 10 10 11 11 10 10 10 10 10 10 10 10 10 10 10 10 10 10 10 10 10 9 9 8 8 8 8 7 7 6 6 6 6 6 6 5 5 5 5 5 5 5 4 4 5 5 5 5 5 5 5 5 6 6 6
13 13 13 13 13 13 13 14 13 13 13 13 12 12 12 12 12 11 11 11 11 11 11 11 11 10 10 10 10 10 10 11 11 11 11 10 10 10 10 10 10 10 10 10 10 10 10 10 10 10 10 9 9 8 8 8 7 7 7 7 6 6 6 5 5 5 5 5 5 5 4 5 5 5 5 5 4 4 5 5 5 5 5 5 6
Height
3189 3189 3190 3192 3194 3194 3196 3196 3196 3197 3197 3197 3199 3201 3202 3203 3205 3207 3209 3210 3211 3212 3213 3215 3216 3217 3218 3219 3219 3220 3220 3221 3221 3222 3222 3222 3222 3222 3222 3222 3222 3222 3221 3221 3221 3221 3221 3221 3221 3220 3218 3218 3218 3218 3218 3218 3217 3216 3215 3216 3216 3215 3215 3215 3214 3214 3213 3212 3211 3209 3207 3206 3204 3204 3203 3203 3203 3203 3203 3204 3205 3206 3206 3206 3206
3189 3190 3191 3193 3195 3195 3196 3196 3197 3199 3198 3198 3200 3202 3204 3205 3207 3208 3210 3212 3213 3214 3215 3216 3217 3218 3219 3220 3220 3221 3221 3222 3222 3222 3223 3223 3223 3223 3223 3222 3222 3222 3221 3222 3222 3222 3222 3222 3221 3220 3219 3218 3217 3217 3217 3217 3217 3217 3216 3216 3216 3216 3215 3215 3214 3214 3214 3213 3212 3210 3208 3206 3205 3205 3204 3204 3204 3204 3204 3205 3206 3207 3207 3207 3207
3190 3191 3192 3194 3196 3196 3197 3198 3198 3199 3199 3199 3201 3203 3206 3207 3208 3210 3211 3213 3214 3215 3216 3217 3218 3219 3220 3221 3221 3222 3222 3222 3223 3223 3223 3223 3224 3223 3223 3223 3222 3222 3222 3222 3223 3223 3223 3223 3222 3221 3219 3218 3218 3217 3217 3217 3217 3217 3216 3216 3216 3216 3216 3215 3215 3215 3215 3214 3212 3210 3208 3207 3206 3206 3205 3205 3205 3205 3205 3206 3207 3207 3208 3208 3208
3191 3193 3194 3195 3197 3197 3198 3199 3199 3201 3201 3202 3203 3205 3207 3209 3210 3211 3212 3214 3215 3216 3217 3218 3219 3220 3221 3221 3222 3223 3223 3223 3223 3224 3224 3224 3224 3224 3224 3223 3223 3223 3223 3223 3223 3223 3224 3223 3223 3222 3221 3220 3219 3218 3217 3217 3217 3216 3217 3217 3216 3216 3216 3216 3215 3215 3215 3214 3212 3211 3209 3208 3207 3207 3207 3207 3206 3205 3206 3207 3208 3208 3208 3209 3209
3193 3195 3196 3197 3198 3198 3199 3200 3201 3203 3204 3205 3206 3207 3209 3210 3211 3212 3213 3214 3216 3217 3218 3219 3220 3221 3222 3222 3223 3224 3224 3224 3224 3225 3225 3225 3224 3224 3224 3224 3223 3223 3223 3223 3223 3223 3224 3223 3223 3222 3222 3222 3220 3219 3219 3218 3218 3218 3217 3217 3216 3216 3216 3216 3215 3214 3215 3214 3212 3211 3210 3209 3208 3208 3208 3208 3208 3207 3207 3208 3208 3209 3209 3209 3210
3195 3196 3198 3199 3200 3200 3200 3201 3203 3205 3206 3207 3207 3209 3211 3212 3212 3213 3214 3215 3216 3218 3219 3220 3221 3222 3223 3223 3224 3224 3225 3225 3225 3226 3226 3225 3225 3225 3225 3225 3224 3224 3224 3223 3223 3224 3224 3224 3223 3223 3223 3222 3221 3220 3220 3220 3221 3221 3220 3218 3217 3216 3216 3216 3215 3214 3214 3213 3213 3212 3211 3211 3210 3210 3210 3209 3209 3208 3208 3209 3209 3209 3210 3210 3211
3197 3199 3200 3200 3201 3201 3201 3202 3205 3207 3207 3208 3209 3210 3212 3213 3214 3215 3216 3217 3218 3219 3220 3221 3222 3223 3223 3224 3225 3225 3225 3226 3226 3226 3226 3226 3226 3226 3226 3226 3225 3224 3224 3224 3224 3225 3226 3225 3224 3223 3223 3222 3222 3221 3220 3221 3220 3221 3221 3220 3219 3217 3216 3216 3215 3214 3213 3212 3213 3213 3212 3212 3211 3211 3211 3211 3210 3209 3209 3210 3210 3210 3210 3211 3211
3199 3200 3201 3202 3203 3204 3204 3204 3206 3207 3209 3210 3211 3212 3213 3214 3215 3216 3217 3218 3219 3220 3221 3222 3223 3223 3224 3225 3225 3226 3226 3227 3227 3227 3227 3227 3226 3226 3226 3226 3225 3224 3224 3225 3226 3227 3227 3226 3226 3225 3224 3224 3223 3222 3221 3221 3220 3219 3220 3220 3219 3218 3216 3215 3215 3215 3213 3213 3213 3213 3212 3212 3212 3212 3212 3212 3211 3211 3210 3210 3211 3211 3211 3211 3212
3200 3201 3202 3203 3204 3205 3205 3206 3208 3209 3210 3211 3212 3213 3214 3215 3216 3217 3219 3220 3220 3221 3222 3223 3223 3224 3225 3225 3226 3226 3227 3227 3228 3228 3228 3227 3227 3227 3226 3226 3225 3225 3226 3227 3228 3228 3228 3227 3227 3226 3225 3225 3225 3223 3221 3221 3220 3220 3220 3219 3218 3218 3217 3217 3216 3216 3214 3214 3214 3214 3212 3212 3212 3213 3212 3212 3212 3212 3211 3211 3211 3211 3212 3212 3213
3201 3202 3203 3204 3205 3206 3206 3208 3209 3210 3211 3212 3214 3215 3215 3216 3217 3219 3220 3221 3221 3222 3223 3224 3224 3225 3225 3226 3226 3227 3227 3228 3228 3228 3228 3228 3228 3227 3226 3226 3226 3227 3228 3228 3228 3228 3228 3227 3226 3226 3226 3225 3225 3224 3223 3222 3221 3220 3220 3219 3219 3218 3218 3218 3218 3217 3215 3215 3215 3214 3213 3212 3213 3214 3213 3212 3212 3212 3212 3211 3212 3212 3212 3212 3213
3202 3203 3204 3205 3206 3207 3208 3209 3210 3211 3212 3213 3214 3215 3216 3217 3218 3220 3221 3222 3223 3223 3224 3224 3225 3225 3226 3227 3227 3228 3228 3229 3228 3229 3228 3229 3228 3226 3227 3228 3229 3229 3228 3228 3228 3227 3228 3228 3227 3226 3226 3225 3225 3225 3224 3223 3222 3220 3220 3220 3219 3218 3218 3219 3219 3218 3217 3215 3215 3214 3214 3214 3214 3214 3213 3212 3212 3212 3212 3212 3213 3213 3212 3212 3213
3204 3205 3206 3207 3207 3209 3210 3211 3211 3212 3213 3214 3215 3216 3217 3218 3219 3221 3222 3223 3224 3224 3225 3225 3226 3226 3227 3228 3228 3229 3229 3229 3229 3229 3229 3229 3228 3226 3228 3230 3230 3230 3228 3228 3228 3227 3227 3227 3227 3227 3226 3225 3225 3224 3224 3223 3222 3221 3221 3220 3219 3218 3218 3219 3219 3219 3218 3216 3215 3215 3215 3215 3215 3214 3214 3213 3212 3212 3212 3212 3213 3214 3213 3213 3213
3205 3206 3207 3208 3209 3210 3211 3212 3213 3214 3214 3215 3215 3216 3218 3219 3220 3221 3223 3224 3225 3225 3226 3226 3227 3227 3228 3229 3229 3229 3230 3230 3230 3229 3229 3229 3227 3227 3230 3231 3231 3229 3228 3228 3227 3226 3226 3226 3227 3227 3226 3225 3225 3225 3224 3222 3221 3221 3221 3220 3219 3219 3219 3220 3220 3219 3217 3217 3217 3216 3216 3216 3216 3215 3214 3213 3212 3212 3212 3212 3213 3214 3214 3213 3214
3207 3208 3208 3210 3211 3212 3213 3213 3214 3215 3215 3216 3216 3218 3219 3220 3221 3223 3224 3225 3226 3226 3227 3227 3228 3228 3229 3229 3230 3230 3230 3230 3230 3230 3229 3229 3227 3228 3230 3231 3230 3229 3229 3228 3227 3226 3225 3225 3227 3227 3227 3226 3226 3226 3225 3223 3222 3222 3221 3221 3221 3220 3220 3220 3221 3220 3216 3216 3218 3218 3218 3217 3217 3216 3215 3214 3213 3213 3213 3212 3213 3214 3214 3214 3214
3208 3209 3210 3212 3213 3214 3214 3214 3215 3216 3217 3217 3218 3219 3220 3221 3223 3224 3224 3225 3226 3227 3227 3228 3228 3228 3229 3230 3230 3230 3230 3230 3230 3230 3229 3229 3227 3227 3229 3230 3230 3230 3229 3228 3227 3226 3224 3224 3226 3227 3227 3227 3227 3227 3225 3224 3223 3223 3223 3223 3223 3221 3221 3221 3221 3222 3219 3217 3218 3219 3219 3219 3219 3217 3216 3215 3214 3213 3213 3213 3213 3213 3214 3214 3214
3210 3211 3212 3213 3214 3215 3216 3216 3217 3217 3218 3219 3220 3221 3222 3223 3224 3224 3225 3226 3227 3227 3228 3228 3228 3228 3229 3230 3230 3230 3230 3230 3230 3230 3229 3229 3228 3227 3228 3231 3230 3229 3228 3228 3227 3225 3224 3226 3228 3227 3228 3228 3228 3228 3226 3224 3223 3223 3224 3224 3223 3222 3221 3221 3222 3222 3221 3220 3219 3220 3220 3221 3220 3218 3217 3216 3215 3214 3214 3214 3213 3213 3214 3214 3215
3211 3211 3213 3215 3215 3216 3217 3218 3218 3219 3219 3220 3221 3222 3223 3224 3225 3225 3226 3226 3227 3227 3227 3228 3228 3229 3229 3230 3230 3230 3230 3230 3230 3230 3229 3229 3228 3228 3229 3231 3231 3229 3228 3228 3228 3227 3227 3229 3230 3229 3228 3229 3229 3228 3227 3225 3223 3223 3224 3224 3223 3222 3221 3222 3223 3222 3222 3222 3221 3221 3221 3222 3221 3218 3217 3217 3216 3215 3214 3214 3214 3214 3214 3214 3215
3211 3212 3214 3215 3216 3217 3218 3219 3220 3220 3221 3222 3222 3223 3223 3224 3225 3226 3226 3227 3227 3227 3227 3228 3229 3229 3230 3230 3230 3231 3231 3231 3230 3230 3230 3229 3229 3229 3230 3231 3231 3230 3228 3228 3229 3229 3229 3230 3232 3231 3229 3229 3229 3229 3227 3225 3224 3223 3223 3224 3224 3223 3222 3222 3222 3222 3223 3223 3221 3222 3222 3222 3223 3220 3218 3218 3217 3216 3215 3215 3214 3214 3214 3214 3215
3212 3213 3215 3216 3217 3218 3219 3220 3220 3221 3221 3222 3222 3223 3223 3224 3226 3226 3227 3227 3228 3228 3228 3229 3229 3230 3230 3231 3231 3231 3231 3231 3231 3231 3231 3230 3230 3230 3230 3231 3231 3230 3229 3229 3231 3231 3231 3231 3232 3232 3230 3229 3229 3229 3227 3225 3224 3224 3224 3224 3223 3223 3223 3223 3222 3222 3224 3223 3222 3222 3222 3221 3223 3221 3218 3218 3218 3217 3216 3216 3215 3215 3215 3215 3215
3212 3214 3215 3216 3217 3218 3219 3220 3221 3221 3221 3222 3223 3224 3224 3225 3226 3227 3228 3228 3228 3229 3229 3230 3230 3230 3231 3231 3232 3232 3232 3232 3232 3232 3231 3231 3231 3231 3231 3231 3231 3231 3229 3230 3231 3231 3231 3231 3232 3233 3231 3229 3229 3228 3227 3225 3224 3224 3224 3223 3223 3223 3223 3224 3223 3223 3223 3222 3222 3222 3221 3221 3222 3221 3218 3218 3218 3217 3216 3216 3216 3216 3215 3215 3215
3213 3214 3215 3216 3217 3218 3219 3220 3221 3222 3222 3223 3224 3224 3225 3226 3227 3227 3228 3229 3229 3230 3230 3230 3230 3231 3231 3232 3232 3232 3232 3232 3232 3232 3232 3231 3231 3231 3231 3231 3231 3232 3230 3230 3231 3231 3231 3230 3231 3231 3230 3229 3229 3228 3226 3225 3224 3224 3224 3224 3223 3223 3223 3223 3223 3222 3222 3222 3221 3221 3221 3221 3221 3220 3218 3218 3218 3217 3217 3216 3216 3216 3216 3216 3216
3213 3214 3215 3216 3217 3219 3220 3220 3221 3222 3222 3223 3224 3225 3226 3226 3227 3228 3229 3230 3230 3231 3230 3231 3231 3231 3232 3232 3232 3232 3232 3233 3232 3232 3232 3232 3232 3232 3232 3232 3231 3232 3231 3230 3231 3231 3231 3231 3231 3230 3229 3228 3227 3226 3226 3225 3226 3225 3225 3224 3224 3223 3223 3223 3223 3222 3222 3221 3221 3221 3221 3220 3220 3219 3218 3218 3218 3217 3217 3216 3215 3215 3216 3216 3216
3214 3214 3215 3217 3217 3218 3219 3221 3221 3222 3222 3224 3225 3225 3226 3227 3227 3228 3229 3230 3230 3231 3231 3231 3231 3231 3232 3232 3232 3232 3232 3232 3232 3232 3232 3232 3232 3232 3232 3232 3232 3232 3231 3231 3230 3230 3230 3231 3230 3230 3229 3228 3227 3226 3226 3226 3225 3225 3225 3224 3224 3223 3223 3222 3222 3221 3221 3220 3219 3219 3219 3219 3218 3218 3218 3218 3218 3217 3216 3216 3215 3215 3216 3216 3216
3214 3214 3215 3217 3218 3219 3220 3221 3222 3223 3223 3224 3225 3225 3226 3227 3228 3229 3229 3230 3231 3231 3231 3231 3231 3232 3232 3232 3232 3231 3231 3231 3231 3231 3232 3232 3232 3232 3232 3232 3231 3231 3231 3231 3230 3229 3229 3230 3229 3229 3229 3229 3228 3227 3226 3226 3225 3224 3224 3223 3223 3222 3222 3221 3221 3220 3220 3219 3218 3218 3217 3217 3217 3217 3218 3218 3217 3217 3216 3216 3215 3215 3216 3216 3217
3214 3215 3215 3216 3218 3219 3220 3221 3222 3223 3223 3224 3225 3226 3227 3227 3228 3229 3229 3230 3231 3231 3232 3232 3232 3232 3232 3232 3232 3231 3231 3231 3231 3231 3232 3232 3232 3231 3231 3231 3230 3230 3230 3230 3230 3229 3229 3229 3228 3228 3228 3228 3228 3227 3226 3225 3224 3223 3222 3221 3221 3220 3220 3220 3219 3219 3219 3218 3218 3217 3216 3216 3216 3216 3217 3217 3217 3216 3216 3216 3215 3215 3216 3216 3217
3214 3215 3215 3216 3217 3218 3220 3221 3222 3223 3223 3224 3225 3226 3227 3227 3228 3229 3229 3230 3231 3232 3232 3232 3232 3232 3232 3232 3231 3231 3231 3231 3231 3231 3231 3231 3231 3231 3230 3230 3229 3229 3229 3229 3228 3228 3228 3228 3228 3227 3227 3227 3226 3226 3224 3223 3222 3221 3220 3219 3218 3218 3218 3217 3217 3217 3217 3217 3216 3216 3215 3214 3215 3215 3215 3216 3216 3215 3215 3215 3215 3215 3216 3216 3217
3213 3214 3215 3215 3216 3218 3219 3220 3221 3222 3223 3224 3225 3225 3226 3227 3228 3229 3229 3230 3231 3231 3232 3231 3231 3231 3231 3230 3230 3230 3230 3230 3230 3231 3231 3231 3231 3231 3230 3229 3229 3229 3228 3228 3228 3227 3227 3227 3226 3226 3226 3225 3225 3224 3222 3221 3220 3219 3217 3216 3215 3215 3215 3215 3215 3215 3215 3215 3214 3215 3214 3213 3213 3213 3214 3214 3214 3214 3214 3215 3215 3215 3216 3217 3217
3213 3214 3214 3215 3216 3217 3218 3219 3220 3221 3223 3224 3224 3225 3226 3227 3227 3228 3229 3230 3231 3231 3231 3230 3230 3230 3229 3229 3229 3229 3229 3230 3230 3230 3230 3230 3230 3230 3230 3229 3229 3228 3228 3227 3227 3226 3226 3226 3225 3225 3224 3224 3223 3222 3220 3219 3218 3217 3215 3214 3213 3212 3212 3212 3211 3211 3212 3212 3212 3212 3212 3212 3211 3212 3212 3212 3213 3212 3213 3214 3214 3215 3215 3216 3217
3212 3213 3213 3214 3215 3217 3218 3219 3220 3221 3222 3223 3224 3225 3225 3226 3227 3227 3229 3229 3230 3230 3230 3229 3229 3228 3228 3228 3228 3228 3228 3229 3229 3229 3229 3229 3229 3229 3229 3229 3229 3228 3227 3227 3226 3226 3225 3224 3224 3223 3222 3222 3221 3220 3219 3217 3216 3215 3213 3211 3210 3209 3209 3209 3208 3208 3208 3209 3209 3210 3210 3210 3210 3210 3210 3210 3211 3211 3211 3212 3213 3213 3214 3216 3217
3212 3212 3214 3214 3215 3217 3218 3218 3219 3220 3221 3222 3223 3224 3225 3226 3226 3227 3228 3228 3228 3229 3228 3228 3228 3227 3227 3227 3227 3227 3227 3227 3228 3228 3228 3228 3228 3228 3228 3228 3228 3228 3227 3226 3226 3225 3224 3223 3222 3222 3221 3220 3219 3218 3217 3216 3215 3213 3211 3210 3208 3207 3207 3207 3206 3206 3206 3206 3206 3207 3208 3208 3209 3209 3209 3209 3209 3210 3211 3211 3211 3212 3213 3215 3216
3211 3212 3213 3214 3215 3216 3218 3218 3219 3220 3221 3222 3222 3223 3224 3225 3226 3226 3227 3227 3227 3227 3227 3227 3227 3226 3226 3226 3226 3225 3225 3226 3226 3226 3227 3228 3227 3227 3226 3226 3227 3227 3226 3225 3225 3224 3223 3222 3221 3220 3219 3218 3217 3217 3216 3215 3213 3212 3210 3208 3207 3206 3205 3205 3205 3204 3204 3203 3204 3205 3206 3206 3207 3207 3208 3208 3208 3208 3210 3211 3211 3211 3213 3214 3215
3211 3212 3213 3214 3215 3216 3217 3218 3219 3219 3220 3221 3221 3222 3223 3223 3224 3225 3226 3226 3226 3226 3226 3226 3226 3226 3225 3225 3224 3224 3224 3224 3225 3225 3226 3226 3227 3226 3226 3225 3225 3225 3224 3224 3223 3223 3222 3221 3219 3218 3217 3217 3216 3215 3214 3213 3212 3210 3209 3208 3207 3205 3204 3203 3203 3203 3202 3202 3202 3203 3204 3205 3205 3206 3207 3207 3207 3207 3209 3211 3211 3211 3213 3214 3214
3211 3212 3213 3214 3215 3216 3217 3217 3218 3219 3220 3220 3221 3221 3222 3222 3223 3224 3225 3225 3225 3225 3225 3225 3225 3225 3224 3224 3224 3223 3223 3224 3225 3225 3225 3226 3226 3226 3225 3224 3224 3223 3223 3223 3222 3221 3221 3219 3218 3217 3215 3215 3214 3213 3212 3211 3210 3209 3208 3207 3206 3205 3204 3203 3202 3201 3201 3201 3201 3201 3202 3203 3204 3205 3205 3206 3207 3206 3208 3211 3210 3210 3212 3213 3214
3211 3212 3212 3213 3214 3215 3216 3216 3217 3218 3219 3219 3220 3220 3221 3222 3223 3223 3224 3224 3224 3224 3224 3224 3224 3223 3223 3223 3223 3222 3223 3224 3224 3224 3224 3225 3225 3224 3224 3223 3222 3222 3221 3221 3221 3220 3219 3218 3216 3215 3214 3213 3212 3212 3211 3210 3209 3208 3207 3206 3205 3204 3204 3202 3201 3200 3200 3200 3200 3200 3201 3201 3202 3203 3204 3205 3206 3205 3206 3209 3210 3209 3211 3212 3213
3210 3210 3211 3212 3213 3214 3215 3215 3216 3217 3217 3218 3218 3219 3220 3221 3222 3222 3222 3222 3222 3222 3223 3222 3222 3222 3222 3222 3222 3222 3223 3223 3223 3223 3223 3224 3224 3223 3223 3222 3221 3221 3220 3220 3220 3219 3218 3217 3215 3214 3212 3211 3210 3210 3209 3208 3207 3207 3206 3205 3204 3203 3203 3202 3201 3200 3199 3199 3199 3199 3200 3200 3201 3201 3202 3204 3205 3205 3204 3206 3208 3209 3209 3210 3211
3208 3209 3210 3211 3212 3213 3213 3214 3215 3215 3216 3217 3217 3218 3219 3220 3221 3221 3220 3220 3220 3221 3221 3221 3221 3221 3221 3221 3221 3222 3222 3223 3223 3223 3222 3222 3222 3221 3221 3221 3221 3220 3220 3219 3219 3218 3216 3215 3213 3212 3210 3209 3208 3208 3207 3207 3206 3205 3204 3204 3203 3202 3202 3201 3200 3199 3199 3198 3198 3199 3199 3199 3200 3200 3201 3202 3203 3204 3203 3203 3204 3206 3207 3209 3210
3207 3208 3209 3210 3211 3211 3212 3213 3213 3214 3215 3215 3216 3217 3218 3219 3220 3219 3219 3219 3219 3219 3220 3220 3220 3220 3220 3220 3221 3221 3222 3222 3222 3222 3221 3221 3220 3220 3220 3221 3220 3220 3219 3218 3217 3216 3214 3212 3211 3210 3208 3208 3207 3207 3206 3206 3205 3204 3203 3203 3202 3201 3201 3200 3199 3199 3198 3198 3198 3198 3198 3198 3199 3199 3200 3200 3201 3201 3202 3202 3202 3203 3204 3205 3207
3206 3207 3208 3209 3210 3210 3211 3212 3212 3213 3213 3214 3215 3216 3217 3218 3218 3218 3218 3217 3217 3218 3219 3219 3219 3219 3219 3219 3219 3220 3220 3221 3221 3220 3220 3220 3219 3219 3219 3220 3219 3218 3217 3216 3216 3214 3212 3210 3209 3208 3207 3207 3206 3206 3206 3205 3204 3203 3202 3201 3201 3200 3200 3199 3198 3198 3198 3198 3197 3197 3197 3198 3198 3198 3199 3199 3199 3199 3200 3201 3202 3202 3202 3203 3204
3205 3206 3207 3208 3208 3209 3210 3210 3211 3212 3212 3213 3214 3215 3216 3216 3217 3217 3217 3216 3216 3217 3217 3218 3218 3218 3219 3218 3218 3218 3219 3219 3220 3219 3219 3219 3218 3218 3218 3218 3218 3217 3216 3215 3214 3212 3210 3208 3207 3207 3206 3206 3205 3205 3205 3204 3203 3202 3200 3200 3200 3199 3199 3198 3198 3198 3197 3197 3197 3197 3197 3197 3197 3197 3197 3197 3197 3197 3198 3199 3200 3201 3202 3202 3202
3204 3204 3205 3206 3207 3207 3208 3209 3210 3210 3211 3212 3213 3214 3215 3215 3215 3215 3216 3216 3216 3216 3216 3217 3217 3216 3217 3217 3217 3217 3217 3218 3219 3219 3218 3218 3218 3217 3217 3217 3216 3217 3216 3214 3212 3210 3208 3207 3206 3206 3205 3205 3204 3203 3203 3202 3202 3200 3199 3199 3199 3199 3198 3198 3197 3197 3196 3196 3196 3196 3196 3196 3196 3196 3196 3196 3196 3196 3196 3197 3198 3200 3201 3201 3201
3202 3203 3204 3205 3205 3206 3207 3208 3209 3209 3210 3211 3212 3213 3213 3214 3214 3215 3215 3215 3215 3215 3215 3216 3216 3215 3216 3216 3216 3217 3216 3217 3218 3217 3217 3216 3216 3216 3216 3215 3215 3215 3214 3211 3210 3208 3207 3206 3205 3204 3204 3204 3203 3202 3202 3201 3200 3199 3198 3198 3198 3198 3198 3197 3197 3196 3196 3195 3194 3194 3194 3194 3195 3195 3195 3195 3194 3194 3194 3195 3196 3197 3198 3198 3199
3200 3201 3202 3203 3204 3204 3205 3206 3207 3208 3209 3210 3211 3211 3212 3213 3213 3213 3214 3214 3214 3214 3214 3215 3215 3214 3214 3214 3215 3215 3215 3215 3215 3216 3215 3215 3215 3215 3214 3213 3213 3212 3210 3209 3208 3207 3206 3204 3203 3203 3202 3202 3202 3201 3201 3200 3199 3198 3197 3197 3197 3197 3197 3197 3197 3196 3195 3194 3193 3193 3193 3193 3193 3193 3194 3194 3193 3193 3193 3193 3194 3194 3195 3196 3196
3199 3200 3201 3201 3202 3203 3203 3205 3206 3207 3208 3209 3209 3210 3210 3211 3211 3211 3212 3213 3213 3213 3213 3213 3214 3214 3213 3213 3214 3214 3214 3214 3215 3215 3215 3215 3215 3214 3212 3211 3211 3209 3209 3208 3207 3205 3204 3203 3202 3202 3201 3201 3201 3200 3199 3199 3199 3198 3197 3197 3196 3196 3197 3197 3196 3196 3195 3194 3193 3192 3192 3192 3192 3192 3192 3192 3192 3192 3192 3192 3192 3192 3192 3193 3194
3197 3198 3199 3199 3200 3201 3202 3203 3204 3205 3206 3207 3207 3208 3208 3209 3209 3209 3210 3211 3212 3211 3211 3212 3213 3213 3213 3213 3213 3214 3214 3214 3214 3214 3214 3213 3213 3212 3210 3209 3209 3209 3208 3207 3205 3204 3203 3202 3201 3200 3200 3200 3199 3199 3198 3198 3198 3197 3197 3196 3196 3196 3197 3198 3197 3196 3196 3195 3193 3192 3192 3192 3192 3191 3191 3191 3191 3191 3191 3190 3190 3190 3191 3191 3191
3194 3196 3197 3198 3198 3199 3200 3201 3202 3203 3204 3205 3205 3206 3207 3208 3208 3208 3208 3209 3210 3210 3210 3211 3211 3211 3212 3212 3213 3214 3213 3213 3213 3212 3212 3211 3211 3210 3209 3209 3209 3208 3207 3206 3204 3203 3202 3201 3200 3199 3199 3199 3198 3198 3197 3197 3197 3197 3196 3196 3196 3196 3197 3197 3197 3197 3196 3195 3193 3192 3192 3191 3191 3190 3190 3190 3189 3189 3189 3189 3189 3189 3189 3189 3189
3192 3193 3195 3196 3196 3197 3198 3199 3200 3201 3202 3203 3203 3204 3205 3206 3206 3206 3207 3207 3208 3209 3209 3209 3210 3210 3211 3212 3212 3212 3212 3211 3211 3211 3211 3210 3209 3209 3209 3209 3208 3207 3206 3204 3203 3202 3201 3200 3199 3198 3198 3197 3197 3197 3196 3196 3196 3196 3195 3195 3194 3195 3195 3195 3195 3195 3195 3194 3193 3191 3190 3190 3190 3189 3189 3189 3188 3188 3188 3187 3187 3187 3187 3187 3187
3190 3192 3193 3194 3194 3195 3196 3197 3198 3198 3199 3200 3201 3202 3203 3204 3204 3205 3205 3205 3206 3207 3207 3208 3209 3209 3210 3210 3210 3210 3210 3210 3210 3210 3209 3209 3208 3209 3209 3208 3207 3206 3205 3204 3202 3201 3200 3199 3198 3198 3197 3197 3196 3196 3196 3196 3195 3194 3194 3193 3193 3193 3192 3192 3192 3193 3193 3192 3192 3191 3190 3188 3187 3188 3187 3187 3187 3186 3186 3186 3186 3186 3185 3185 3185
3188 3190 3190 3191 3192 3193 3194 3195 3196 3196 3197 3198 3199 3200 3201 3202 3203 3203 3203 3204 3205 3206 3206 3207 3207 3208 3208 3209 3209 3209 3209 3209 3209 3208 3208 3208 3208 3208 3207 3206 3205 3205 3204 3203 3202 3201 3200 3198 3198 3197 3196 3196 3195 3195 3195 3195 3194 3194 3193 3192 3192 3192 3191 3191 3191 3191 3191 3191 3190 3190 3189 3187 3186 3186 3185 3185 3185 3185 3185 3184 3184 3184 3183 3183 3183
3186 3187 3188 3190 3191 3191 3192 3193 3194 3195 3196 3196 3197 3198 3200 3200 3201 3201 3202 3203 3204 3205 3206 3206 3207 3207 3207 3208 3208 3208 3208 3208 3208 3208 3208 3208 3207 3207 3206 3205 3205 3204 3203 3202 3201 3200 3199 3198 3197 3196 3196 3195 3194 3194 3194 3194 3194 3193 3193 3192 3192 3191 3191 3190 3190 3190 3189 3189 3189 3189 3188 3187 3186 3184 3183 3183 3183 3183 3183 3183 3182 3182 3181 3181 3180
3183 3185 3186 3188 3189 3190 3190 3191 3192 3193 3194 3195 3196 3197 3198 3199 3199 3200 3201 3202 3203 3204 3204 3205 3205 3206 3206 3207 3207 3208 3208 3207 3207 3207 3207 3207 3206 3206 3205 3204 3204 3203 3203 3202 3201 3200 3199 3198 3197 3196 3195 3194 3194 3193 3193 3193 3193 3193 3192 3192 3191 3190 3190 3189 3189 3189 3188 3188 3188 3187 3186 3186 3185 3183 3182 3181 3181 3181 3181 3181 3180 3180 3179 3178 3178
3180 3182 3184 3185 3187 3188 3189 3189 3190 3191 3192 3193 3195 3196 3196 3197 3198 3198 3199 3201 3201 3202 3203 3204 3204 3205 3206 3206 3207 3207 3207 3207 3206 3206 3206 3206 3205 3205 3205 3204 3203 3203 3202 3201 3201 3200 3199 3198 3197 3196 3195 3194 3193 3193 3193 3193 3192 3192 3192 3191 3190 3190 3189 3189 3188 3188 3187 3186 3186 3185 3184 3184 3183 3182 3181 3181 3180 3179 3179 3178 3177 3177 3177 3176 3175
Wind_Speed
16 16 16 18 21 24 24 24 24 22 24 26 26 26 25 26 25 25 24 24 24 24 23 24 23 22 23 24 24 23 21 19 18 16 14 12 12 12 12 12 11 11 11 10 10 11 11 11 11 12 12 12 13 14 13 13 12 12 12 11 10 10 10 11 14 16 18 21 20 17 18 17 15 15 15 12 8 5 3 3 4 3 3 3 2
18 18 18 19 20 23 24 25 25 24 25 25 24 25 25 25 24 24 24 23 23 23 24 24 23 23 23 23 23 21 20 18 16 14 12 11 11 11 11 10 10 10 10 10 11 10 10 10 10 11 11 11 12 13 11 12 11 10 10 9 9 8 8 9 10 13 15 18 19 16 16 18 18 17 15 14 12 9 8 8 8 7 5 5 4
20 20 21 22 21 23 24 25 25 24 24 25 24 24 24 24 23 23 22 22 22 23 23 23 23 23 23 23 22 21 19 17 15 13 11 10 9 9 9 9 9 9 9 10 10 9 9 9 10 10 10 11 12 11 11 11 11 10 9 7 7 7 7 8 9 11 14 16 18 14 12 15 17 18 17 16 14 13 13 13 12 10 7 7 7
22 22 22 22 21 23 25 24 25 25 24 24 25 24 23 22 22 22 22 21 21 22 22 23 23 23 23 23 22 20 18 16 13 11 9 9 8 8 8 8 8 8 8 9 9 8 9 9 9 10 11 13 13 12 11 11 10 10 9 7 6 6 6 7 8 10 13 15 17 15 12 13 15 16 16 16 15 15 15 14 12 10 9 9 9
24 23 22 21 21 23 24 25 26 26 25 24 25 24 22 21 21 22 21 21 22 22 22 23 23 22 22 22 22 20 17 15 12 10 9 7 7 7 7 7 6 6 7 7 8 8 8 9 8 9 11 12 12 11 11 11 10 9 9 8 6 6 6 6 7 9 12 15 16 16 13 11 13 13 13 14 14 15 14 14 12 11 10 10 9
24 22 21 21 22 24 25 24 25 26 25 24 25 24 23 22 21 21 21 21 22 22 22 22 22 21 21 20 20 18 16 13 11 9 8 6 6 6 6 6 6 6 6 6 7 8 8 8 8 10 10 10 11 10 10 11 9 9 9 8 6 7 7 7 7 9 12 14 14 15 14 10 11 11 10 11 13 15 15 14 13 12 10 10 9
23 22 21 21 22 24 26 25 24 25 25 24 25 24 23 23 22 22 21 21 21 21 21 21 21 20 19 18 17 16 14 12 10 8 7 6 5 5 5 5 4 4 5 6 8 9 9 10 9 10 10 9 10 9 9 10 10 10 8 7 7 6 6 7 8 10 12 14 12 13 13 11 10 9 8 8 11 13 14 14 14 13 11 10 10
22 22 21 20 21 23 25 25 24 24 24 24 24 24 23 23 22 21 21 21 21 21 20 20 19 19 18 17 16 15 13 11 9 8 7 6 5 4 3 4 2 2 5 7 10 10 10 10 9 9 9 9 9 9 8 9 9 10 8 8 8 6 6 6 7 10 12 13 12 12 14 13 10 8 8 8 8 11 13 14 13 13 12 10 10
22 23 22 21 22 23 24 24 24 25 24 24 23 23 23 22 22 20 20 20 20 19 19 18 18 17 16 15 15 14 13 11 10 9 8 7 5 3 2 2 1 3 6 9 9 9 9 8 7 7 8 8 8 8 8 9 9 8 9 7 7 7 7 7 7 9 11 12 11 12 14 13 11 8 7 7 7 8 10 11 11 12 11 10 10
23 23 22 22 22 23 23 23 23 24 24 24 23 23 22 21 21 20 19 19 19 18 18 18 17 16 16 15 14 14 13 12 11 10 9 7 5 3 2 1 2 5 7 8 7 7 7 6 6 5 6 7 7 7 8 9 8 8 10 7 6 7 7 6 7 8 9 11 10 11 13 14 12 7 6 7 7 7 9 9 8 9 10 9 10
23 23 22 22 23 23 23 23 22 22 23 24 23 22 21 20 20 20 19 19 18 18 18 18 17 17 17 16 15 14 13 12 11 10 9 7 5 4 1 1 3 7 8 7 7 7 7 6 6 6 6 6 7 7 7 8 8 8 9 7 5 5 5 5 7 7 8 10 9 9 11 12 11 7 7 7 8 7 8 8 7 7 9 10 10
22 23 22 22 23 23 23 23 23 22 22 22 22 22 21 19 19 19 19 19 19 18 18 18 18 18 17 16 15 14 13 12 10 9 8 7 5 4 1 1 3 7 8 8 9 9 8 8 8 6 5 5 6 6 7 9 9 8 7 7 6 5 5 5 5 6 9 9 9 9 9 10 8 8 8 7 8 8 7 7 7 5 8 10 11
23 23 22 22 23 22 22 22 22 22 21 21 22 21 20 20 19 19 19 19 19 18 18 18 18 18 17 16 14 13 12 11 9 8 7 6 4 4 2 2 6 9 8 9 9 9 9 9 9 6 4 5 6 6 6 8 10 9 6 6 6 5 5 6 4 6 10 9 8 9 9 8 6 7 9 8 8 8 8 7 7 5 6 9 10
24 23 22 22 22 22 21 21 20 21 21 21 21 20 20 20 19 20 19 19 18 18 17 17 18 17 16 15 13 12 11 9 8 6 5 4 2 3 4 6 9 9 7 6 6 7 8 9 9 7 4 4 6 6 6 7 9 8 6 5 6 5 4 5 5 5 8 8 7 8 8 7 6 7 9 9 8 8 8 8 8 6 6 8 9
24 24 22 22 21 21 20 21 20 20 21 20 20 20 19 19 19 19 19 19 18 18 17 16 16 16 15 14 13 12 10 8 6 5 4 2 1 4 5 8 9 7 4 3 3 4 5 5 7 6 4 5 6 7 8 8 8 7 7 6 6 5 4 5 5 6 5 7 6 5 6 6 7 8 8 9 8 7 7 8 8 8 6 7 9
21 23 22 21 21 20 19 20 20 20 20 19 19 20 19 19 19 19 19 18 17 17 16 15 15 14 14 13 12 11 9 8 6 5 3 2 1 4 5 8 7 4 3 2 2 3 4 4 5 5 5 6 7 6 8 9 8 9 9 7 6 5 5 6 5 5 5 4 4 3 3 4 5 8 8 8 8 6 6 6 7 8 8 7 8
19 20 21 20 21 20 19 18 19 19 19 19 19 20 19 18 18 19 18 17 16 16 16 15 15 14 13 12 11 10 8 7 6 4 3 1 1 4 6 8 6 4 4 3 3 5 7 6 5 3 4 6 7 6 7 10 10 10 11 10 9 7 7 7 5 5 5 4 3 2 2 2 3 6 7 7 7 6 5 6 6 7 8 8 9
19 18 19 19 20 20 20 19 18 18 18 19 19 19 19 18 18 18 17 16 15 15 15 14 13 12 11 10 9 8 7 6 4 3 2 1 2 3 5 6 7 5 5 5 4 6 7 7 6 3 4 6 6 6 6 9 11 11 11 11 10 9 8 8 6 5 6 6 5 3 2 3 2 4 7 6 6 6 6 5 5 6 8 9 9
21 19 18 18 18 18 19 19 18 17 17 17 17 17 18 18 17 17 16 16 15 15 14 13 12 11 10 9 7 7 5 4 3 2 1 1 3 3 5 5 7 5 3 4 6 6 7 8 7 5 7 7 5 5 7 9 11 11 10 10 11 10 8 7 6 6 6 6 6 5 2 2 1 2 7 6 5 5 5 5 4 4 5 7 8
22 20 19 18 17 17 18 18 17 17 16 16 16 17 17 16 16 16 15 15 15 14 13 12 11 10 9 8 7 6 5 4 3 2 1 1 2 3 3 3 4 4 2 4 5 5 7 8 6 5 8 8 6 5 7 10 11 11 10 11 12 11 9 8 7 7 7 8 7 6 4 2 1 1 5 5 4 4 4 5 3 2 3 5 7
21 20 21 20 19 18 18 17 17 17 16 16 15 15 16 15 15 15 14 14 14 13 12 11 10 9 8 8 7 6 5 5 4 3 1 0 2 3 3 3 2 2 3 4 4 3 5 6 4 5 7 7 7 6 8 10 10 10 10 10 10 10 9 8 8 8 8 7 6 5 4 2 2 1 2 3 3 4 3 4 3 2 2 3 6
20 19 20 20 19 18 18 17 16 16 15 15 15 14 14 14 14 14 13 13 13 12 11 10 10 9 8 8 7 6 5 5 3 2 1 1 3 5 5 5 4 3 3 4 4 3 4 4 4 5 6 7 8 9 9 9 8 8 8 8 8 8 9 8 7 8 8 8 6 3 3 3 2 2 1 2 2 3 3 3 3 2 1 2 4
19 18 17 19 19 17 16 16 15 16 14 14 16 15 14 14 14 14 13 13 12 12 11 10 10 9 9 8 7 6 5 3 1 0 1 3 4 5 5 6 6 4 4 5 5 4 3 3 4 5 5 7 8 9 10 10 10 10 10 9 9 9 9 9 8 7 8 8 7 5 4 4 3 3 3 4 3 2 2 3 3 3 2 2 3
18 18 16 17 18 17 17 16 17 18 17 15 14 13 13 14 13 12 12 12 12 11 10 10 9 9 9 8 6 5 3 2 1 2 3 3 4 5 6 6 6 5 6 6 6 6 6 5 5 5 6 7 8 10 11 12 13 13 14 13 13 12 11 11 10 8 7 7 7 7 6 5 5 5 5 5 5 5 4 4 4 3 3 2 2
17 17 15 14 15 16 16 16 16 17 17 16 14 12 12 13 12 12 11 10 11 10 10 10 9 9 8 7 6 5 4 4 3 4 4 4 5 6 6 7 7 7 7 7 7 7 7 7 7 8 9 10 11 12 14 15 16 16 16 16 16 15 14 13 12 11 9 8 7 7 8 7 6 7 7 6 6 7 7 6 5 4 4 4 3
16 16 14 13 13 15 15 15 15 15 15 15 15 13 11 11 11 11 10 10 10 9 9 9 8 8 7 7 7 7 6 5 5 5 5 5 5 6 7 7 8 8 8 8 8 8 8 8 9 10 11 12 13 14 16 16 17 17 17 18 18 18 17 15 14 13 12 11 9 8 9 9 8 8 9 8 7 7 8 8 7 6 5 5 4
16 15 13 12 12 12 13 13 14 13 14 14 13 12 10 10 10 9 9 10 9 9 9 8 8 7 7 7 7 8 7 7 7 6 6 6 6 7 7 8 9 9 9 9 9 9 9 10 11 12 13 14 15 15 16 16 16 17 19 19 20 19 18 18 16 15 14 14 13 12 11 10 10 9 9 9 8 8 9 9 9 8 7 5 5
14 14 12 11 10 10 11 11 12 12 12 12 12 12 11 10 10 9 9 8 8 8 9 8 8 7 7 7 7 7 8 8 8 7 7 7 7 7 8 9 9 9 9 9 9 10 10 11 13 14 15 15 16 15 16 17 17 18 19 20 19 18 17 17 17 16 16 16 16 15 12 11 11 10 10 10 10 10 9 10 11 10 10 9 6
14 13 12 11 11 10 11 11 11 10 11 12 12 12 12 11 11 10 9 8 8 8 8 8 7 7 7 7 6 7 7 8 8 8 8 8 7 6 7 8 10 10 9 10 10 11 12 13 14 15 15 15 15 16 17 18 18 19 19 18 18 17 17 16 16 16 15 16 16 15 13 12 11 11 11 11 11 11 10 10 11 12 13 12 10
14 14 12 12 11 11 12 12 12 12 12 13 13 12 12 12 11 10 9 8 8 8 8 8 7 7 7 7 6 6 7 8 8 9 8 8 7 7 6 8 10 11 11 11 12 13 13 14 15 16 16 16 17 17 17 18 18 17 17 17 18 17 17 16 15 15 13 13 14 13 13 12 11 11 11 12 13 12 11 11 12 14 14 12 12
16 16 15 14 13 14 14 14 13 13 13 13 13 12 12 12 11 10 9 9 9 8 8 8 6 7 7 7 7 6 7 8 9 9 8 8 7 7 8 7 8 10 11 12 12 13 15 15 16 18 19 19 19 18 16 16 16 16 17 18 17 17 18 17 15 14 11 10 11 11 12 11 11 11 11 12 13 14 13 12 13 14 13 11 13
17 16 16 15 15 15 15 14 14 14 13 13 13 13 12 12 11 10 9 8 8 7 7 7 6 7 7 7 7 7 8 8 9 9 7 7 7 8 10 9 10 12 13 14 14 16 17 17 18 20 21 21 19 17 15 14 15 16 16 16 16 16 17 17 15 12 9 8 7 9 10 11 11 11 11 11 12 15 15 13 13 13 12 13 15
16 15 16 16 16 16 16 16 16 15 13 13 13 13 12 12 10 9 8 8 8 7 6 6 6 8 8 7 8 9 9 9 11 11 8 6 7 8 10 9 11 12 13 15 16 18 18 17 19 20 20 19 17 16 14 14 15 15 15 15 16 16 16 16 14 10 7 5 5 6 8 10 11 11 11 11 12 15 15 12 13 13 12 13 16
16 16 16 17 17 17 17 17 16 15 14 14 14 13 13 11 9 8 8 8 7 7 7 7 8 9 9 8 10 11 11 11 11 11 8 6 7 8 9 9 10 12 14 14 15 18 19 18 18 19 19 18 17 15 14 14 15 15 15 15 16 15 15 13 11 9 6 4 3 4 6 9 10 10 11 10 11 14 15 13 13 13 12 13 15
17 17 16 16 17 18 17 16 16 15 15 15 14 13 12 11 10 9 8 8 8 8 9 9 9 10 9 10 11 11 11 11 11 10 7 6 7 8 10 10 11 13 14 14 16 20 20 19 19 19 19 18 16 15 14 14 14 13 13 14 15 15 14 11 9 9 6 4 3 2 4 6 9 10 10 10 11 14 15 15 13 13 13 12 14
18 17 16 16 17 17 16 15 15 15 15 14 13 13 12 11 10 9 9 9 8 10 11 10 10 9 9 11 12 12 12 11 11 10 7 7 8 9 10 12 14 15 15 16 19 22 21 19 18 18 18 17 16 15 14 15 14 13 12 12 13 12 11 10 8 8 6 5 4 2 2 3 5 8 9 11 12 13 14 16 15 14 14 13 14
18 17 16 16 16 16 15 15 14 14 14 14 13 12 12 11 10 10 11 10 9 11 11 10 9 9 10 11 11 11 12 12 10 9 8 8 9 9 10 13 15 15 15 18 21 22 21 19 17 16 16 16 16 16 15 14 14 14 13 11 10 10 9 9 7 7 7 6 5 4 3 2 2 4 7 11 13 13 13 16 17 17 15 14 14
19 18 17 16 16 15 15 15 15 15 14 14 13 12 12 12 12 12 12 11 11 11 11 11 11 10 11 12 10 10 11 12 10 8 8 9 9 8 9 12 14 15 17 20 21 21 21 19 17 15 16 16 16 16 16 15 15 16 15 12 10 8 8 8 7 6 6 5 5 4 4 2 2 3 4 6 10 13 15 16 17 18 17 16 15
20 19 18 17 16 15 15 15 15 15 15 14 13 11 12 13 14 13 12 11 11 11 11 11 13 12 12 12 11 11 12 11 11 9 8 9 10 10 11 12 13 16 18 20 20 20 20 18 16 15 15 15 15 15 15 16 15 15 15 13 11 7 7 7 6 5 5 5 4 3 4 5 3 3 3 4 6 8 13 15 16 15 16 17 17
21 20 18 18 17 16 16 15 15 16 15 14 13 12 13 13 14 14 12 11 11 11 11 12 13 13 13 13 13 13 13 12 12 11 8 10 12 12 13 13 13 15 18 20 21 20 19 17 16 16 14 14 14 15 15 15 15 14 15 14 11 8 6 5 5 5 4 5 5 2 3 5 5 3 3 4 4 5 7 11 12 12 14 16 17
22 21 20 19 18 17 16 15 15 16 15 14 13 13 14 13 13 14 13 11 12 12 12 14 13 13 15 15 14 14 14 13 12 11 9 9 12 14 14 12 13 16 20 21 20 18 17 16 16 15 14 13 13 14 14 14 14 14 14 13 12 10 6 5 4 5 5 5 6 4 4 5 5 4 4 4 5 5 6 7 8 10 13 15 16
23 22 21 20 19 18 16 15 16 16 15 15 14 13 14 13 12 13 13 13 13 12 12 14 14 14 15 14 13 14 14 13 11 11 9 8 12 15 14 12 13 17 19 19 18 16 15 15 15 14 13 12 12 13 13 13 12 12 14 15 14 11 7 6 6 5 5 6 7 6 4 4 4 4 4 5 5 6 6 7 7 8 10 12 14
23 23 22 21 19 18 17 16 16 16 16 15 15 15 14 14 15 15 15 15 13 13 14 15 15 14 12 11 13 16 16 13 12 11 10 10 11 12 13 12 14 17 18 17 15 14 13 14 14 13 13 12 11 11 11 11 11 12 14 14 13 10 7 8 8 6 6 9 10 7 5 5 6 7 7 6 7 7 7 8 9 9 10 11 12
25 24 23 22 20 18 17 16 16 16 17 16 17 17 14 15 17 16 16 15 13 14 15 16 18 16 12 11 14 17 17 15 11 9 9 10 9 8 10 12 13 14 14 12 11 11 12 12 13 12 12 11 11 11 11 10 9 10 12 12 12 11 8 7 8 7 7 9 11 9 7 7 8 8 9 9 9 8 9 9 10 10 11 12 12
26 25 24 22 21 18 17 17 17 17 18 18 18 18 16 18 19 17 16 16 16 16 15 16 18 17 14 13 14 16 15 13 11 10 10 9 7 6 8 8 9 8 7 6 7 9 10 10 11 12 11 10 10 10 9 9 8 9 9 9 9 7 6 8 8 7 8 9 11 13 11 10 9 9 10 10 11 11 10 11 11 11 12 12 13
27 26 24 22 21 19 19 19 19 19 20 20 20 19 18 19 18 18 18 17 19 19 17 18 18 17 16 15 15 14 13 12 11 11 10 7 5 3 3 2 2 4 6 6 7 8 8 9 10 11 10 10 9 9 9 8 8 8 8 8 8 7 7 8 7 8 10 10 11 13 13 12 11 11 12 12 12 13 12 12 12 13 13 13 14
27 26 24 23 22 21 22 22 22 22 21 22 22 21 20 19 18 18 18 19 20 19 18 19 18 16 16 15 15 14 13 12 11 10 7 6 4 2 2 4 6 7 7 7 7 8 8 8 10 11 11 10 9 9 9 8 8 7 7 7 8 9 9 8 8 11 12 11 11 10 10 13 16 16 15 14 14 14 14 14 14 14 15 15 15
27 26 24 23 23 23 24 24 23 22 22 23 23 22 20 19 19 19 19 20 19 18 19 20 18 17 16 15 15 14 12 12 11 9 7 6 5 4 6 8 8 8 8 8 8 9 9 9 9 10 10 10 9 9 8 8 7 6 5 5 6 7 7 8 9 10 11 12 11 10 10 14 18 18 17 16 15 15 15 16 17 17 17 17 17
26 26 25 23 23 24 24 23 21 20 21 23 23 22 20 20 20 19 20 21 20 20 20 18 17 17 16 15 14 12 11 10 9 8 7 5 5 6 8 9 9 10 10 10 10 10 10 10 10 9 9 8 8 8 8 8 7 6 5 5 6 6 6 6 7 8 9 10 10 10 13 15 15 15 18 20 18 17 17 17 18 19 19 19 19
26 26 25 24 24 25 24 22 20 20 21 23 22 20 19 20 20 20 21 22 21 20 18 17 17 17 16 14 12 11 10 9 8 7 6 4 4 5 7 9 11 12 12 12 12 12 11 10 10 9 8 7 6 7 7 7 8 8 7 7 8 8 7 7 7 8 9 9 10 11 13 13 14 16 20 21 20 19 19 19 19 19 20 20 20
28 28 26 26 26 27 25 23 22 21 21 23 22 20 20 19 20 21 22 22 21 19 17 17 17 16 15 13 11 10 9 8 7 6 5 4 3 5 7 9 11 12 13 13 12 12 12 10 10 9 8 7 6 6 7 8 8 9 9 9 9 10 10 9 9 10 10 10 11 12 13 14 15 16 18 18 19 20 20 21 20 19 19 20 20
Wind_Direction
133 129 131 126 123 125 130 134 133 138 137 134 135 134 134 135 137 136 136 136 137 136 135 134 132 132 134 136 137 135 129 123 119 113 107 97 90 89 85 81 80 78 75 77 79 75 67 63 67 66 63 61 64 59 56 65 73 86 91 88 85 76 60 48 42 39 40 36 36 44 50 50 50 54 57 64 76 91 123 151 148 139 160 167 170
132 130 130 124 123 127 131 134 134 139 134 131 131 131 132 133 134 133 135 136 137 137 136 134 131 131 135 139 141 139 132 125 120 114 106 97 92 90 85 77 75 72 71 77 79 71 61 60 65 61 56 58 63 61 56 61 71 84 91 84 77 71 55 43 38 33 37 37 33 39 47 45 47 55 58 63 75 87 97 109 116 111 110 113 100
132 130 130 126 127 130 132 133 135 137 131 130 130 130 131 131 131 131 134 136 138 138 137 135 131 130 134 139 143 143 136 129 124 117 109 101 97 92 84 75 71 70 72 78 76 68 64 62 60 56 50 49 53 56 52 55 65 73 84 86 75 61 52 45 35 29 31 36 35 36 39 39 44 53 58 60 74 93 94 95 103 103 101 101 99
132 129 129 128 129 130 131 134 135 135 129 131 129 128 129 128 129 130 134 136 137 138 138 138 135 132 134 138 141 142 140 136 130 122 115 108 99 90 82 75 71 68 73 77 73 66 66 60 56 53 48 47 42 39 41 47 55 54 60 74 77 60 50 51 43 38 33 37 41 37 36 39 44 49 55 56 72 94 95 94 98 97 94 97 105
132 131 129 128 128 128 131 134 135 133 130 130 128 127 127 127 127 128 131 133 135 138 140 140 139 137 136 138 139 140 141 140 135 128 123 114 100 87 80 75 71 68 72 71 67 62 61 59 57 57 52 54 48 40 39 40 43 47 54 52 56 59 48 49 54 51 43 44 44 43 47 48 45 47 51 52 69 89 95 98 96 94 96 97 102
134 133 132 131 129 128 131 134 136 137 134 130 128 128 128 127 126 126 127 131 135 138 140 142 143 142 141 140 140 142 143 143 140 135 128 116 100 86 80 73 66 62 63 58 62 60 58 56 51 53 51 51 54 50 44 41 36 40 54 48 42 49 41 38 54 57 52 50 45 49 58 62 54 50 52 50 65 81 90 96 96 97 100 98 95
137 133 131 132 130 130 132 134 136 137 134 130 129 130 129 127 125 125 127 131 135 138 141 143 145 146 145 145 145 146 147 148 144 141 134 121 103 91 84 74 61 52 53 50 57 55 51 49 43 44 41 41 51 51 43 45 41 39 45 46 47 51 44 31 42 57 61 55 48 55 65 74 69 60 64 58 59 73 85 92 96 98 98 97 94
138 135 133 133 131 131 133 135 133 131 129 130 131 131 130 127 125 127 129 132 136 139 142 142 144 146 147 148 149 151 153 155 151 147 137 126 119 111 95 87 77 48 52 50 48 45 41 38 36 36 35 38 46 45 45 55 53 55 51 39 44 51 54 41 39 54 65 62 53 63 76 82 79 70 74 68 62 70 81 87 93 96 98 99 95
137 138 134 133 134 132 133 135 133 131 131 133 135 132 130 129 128 130 133 135 137 139 140 141 143 146 148 148 151 154 157 158 154 147 137 133 131 134 132 122 104 53 47 42 40 41 36 30 34 33 32 35 47 47 47 60 57 62 66 46 37 35 43 49 50 51 60 67 57 63 78 87 84 76 84 82 75 76 77 82 88 94 99 102 104
138 139 135 134 134 133 133 135 134 135 135 137 138 135 133 132 131 135 138 139 139 140 142 143 145 147 149 149 152 154 156 154 149 143 136 133 135 159 173 106 41 42 39 28 25 35 36 31 37 39 36 28 40 54 53 65 61 60 73 67 47 38 42 47 52 54 64 73 66 61 72 84 86 88 107 101 87 78 73 79 88 102 108 106 106
138 138 136 134 134 133 133 135 134 136 138 139 141 139 137 136 135 137 140 141 140 142 144 145 147 148 149 149 149 149 149 146 143 138 135 137 151 179 158 59 24 29 26 17 8 14 27 26 21 23 40 34 29 45 54 72 80 73 75 81 81 63 58 57 55 62 72 78 78 68 64 70 81 99 119 117 106 89 80 82 85 104 118 113 105
136 136 134 132 133 133 133 134 134 136 138 139 140 139 139 139 138 138 138 138 140 142 143 143 144 145 145 144 142 141 140 138 136 134 140 146 168 194 147 63 28 26 13 11 4 1 14 20 20 21 39 54 47 44 46 62 78 79 77 87 93 82 76 74 69 73 73 75 81 80 72 63 69 86 98 114 117 108 103 94 84 95 116 113 106
135 134 133 132 134 134 132 132 134 135 137 138 137 138 140 140 139 138 138 138 140 141 141 141 140 140 138 138 136 134 133 132 133 136 145 147 193 215 131 46 34 30 11 12 5 360 11 16 27 35 39 61 68 62 46 48 58 58 63 73 72 69 75 72 55 70 80 79 76 76 77 74 69 68 74 95 112 117 120 110 102 105 113 111 106
134 133 132 132 135 136 134 132 134 136 138 138 136 138 140 139 139 139 140 140 141 142 141 138 135 134 133 134 133 131 130 130 133 137 136 136 237 289 45 39 35 31 19 24 6 1 9 13 28 35 32 53 66 61 49 43 49 47 43 46 49 58 66 65 32 36 84 89 77 74 71 73 73 65 64 79 100 117 129 132 127 121 118 117 109
135 133 131 132 134 135 135 134 134 134 134 135 135 137 138 138 139 139 140 140 141 142 138 134 131 131 132 134 134 131 131 132 133 130 122 121 300 328 22 39 40 35 33 43 14 3 0 13 30 29 31 49 46 38 38 40 50 49 35 29 30 42 41 46 28 4 52 76 71 69 65 68 67 66 65 71 87 108 129 141 138 127 126 130 115
138 135 131 133 133 133 135 133 132 131 130 132 134 134 136 138 139 138 138 139 142 142 139 137 135 136 138 138 137 136 137 137 138 133 129 123 330 325 12 47 51 57 61 46 23 348 336 13 31 37 42 38 35 27 32 34 41 44 34 30 20 15 15 19 22 356 7 51 59 60 68 87 75 66 66 67 76 89 111 130 138 131 130 138 128
138 135 133 135 135 135 136 134 133 132 132 134 135 134 135 137 138 137 138 141 143 143 142 142 142 145 144 141 139 139 141 143 146 140 127 102 3 335 17 51 56 48 34 21 27 354 344 6 21 58 51 13 19 19 27 37 43 39 23 24 24 16 13 8 8 354 356 12 11 39 54 39 62 71 69 68 71 76 87 108 129 135 136 141 141
135 133 134 139 138 137 138 139 138 132 132 135 135 136 135 137 139 138 142 145 144 144 145 146 147 148 143 140 141 143 149 152 149 134 115 63 23 1 18 47 59 41 6 360 15 5 350 0 18 70 69 31 23 7 17 45 49 40 18 15 22 25 21 9 0 351 1 3 347 3 24 350 6 82 79 73 74 75 78 87 113 134 145 144 146
136 135 139 139 136 139 140 141 140 134 135 137 138 140 138 141 144 144 146 147 145 146 148 150 151 150 145 145 152 157 161 162 157 137 122 51 28 16 13 37 66 59 354 352 7 14 3 6 29 57 69 66 60 32 26 39 40 36 24 13 16 26 27 12 356 344 350 350 347 359 5 352 313 106 90 82 79 77 77 74 88 122 145 146 145
140 141 143 139 136 141 143 141 141 141 143 143 144 145 143 145 148 148 148 148 150 151 153 155 155 156 156 157 169 174 172 179 185 175 161 69 19 357 349 1 56 60 339 351 9 26 27 22 31 44 67 68 56 50 32 28 28 27 23 14 10 11 17 15 358 343 341 336 348 5 3 5 292 149 100 93 86 84 81 77 74 92 125 143 145
145 147 145 142 144 146 147 149 148 149 150 148 148 146 146 149 149 151 152 153 156 157 158 160 161 165 169 173 184 186 186 195 195 191 187 74 333 315 306 303 349 22 325 341 1 26 41 37 22 22 49 45 22 19 17 19 19 15 12 9 4 356 359 6 357 343 337 332 343 2 355 349 293 282 111 115 104 102 98 92 86 77 102 137 145
150 152 148 147 150 150 148 149 149 149 149 147 151 152 152 154 154 157 160 159 161 162 162 166 170 176 181 188 196 193 194 197 186 183 212 291 295 298 298 293 306 329 316 324 334 351 34 38 19 15 20 8 357 358 1 1 356 352 350 346 344 341 340 344 347 340 333 329 331 331 315 316 314 306 251 206 159 131 128 118 107 101 106 133 144
155 154 152 149 150 155 153 150 152 154 154 153 157 160 159 159 160 163 166 166 168 169 169 174 181 188 194 198 203 196 193 191 164 313 305 293 285 289 293 292 296 311 319 317 318 324 346 354 2 6 354 344 342 341 340 336 333 328 322 317 316 316 315 318 323 328 327 324 323 312 291 298 317 309 274 252 232 197 178 163 145 142 139 145 154
159 157 157 153 151 157 159 159 161 160 160 161 161 164 164 162 166 169 170 172 174 175 177 182 190 197 203 206 210 204 200 219 281 301 303 292 284 286 289 296 302 314 320 314 311 309 314 323 331 335 328 323 321 320 320 318 316 312 309 305 303 305 305 304 302 304 309 313 318 312 294 284 290 291 284 269 247 233 226 209 187 178 163 152 165
163 163 164 162 158 160 162 163 165 163 161 160 161 170 171 166 171 173 172 178 179 181 186 190 197 205 211 213 215 221 229 247 269 284 286 277 277 285 293 306 311 313 313 309 307 302 304 311 316 319 317 314 312 310 309 308 306 303 301 299 299 301 302 300 294 291 291 295 302 304 295 278 271 274 277 275 255 240 238 231 210 203 191 170 167
168 169 170 169 168 166 166 168 169 169 166 163 167 174 176 173 177 177 177 184 186 189 194 194 201 212 219 223 226 232 241 252 264 272 276 274 277 288 299 310 311 310 309 307 306 301 299 303 310 315 315 313 312 310 308 306 306 304 300 298 296 297 297 296 291 286 283 284 286 291 289 280 268 264 267 274 265 244 237 235 222 216 211 188 176
171 171 172 171 173 172 171 173 174 176 174 169 172 177 180 182 185 187 189 191 191 194 198 199 206 215 222 232 238 241 249 256 264 273 280 284 287 294 302 308 310 310 310 309 306 301 299 301 307 312 314 313 309 308 307 306 307 305 301 298 295 294 293 291 287 282 279 278 279 280 279 276 270 260 259 264 266 257 240 233 228 223 220 207 188
171 170 173 170 174 178 178 181 179 181 183 179 181 183 186 192 192 199 203 201 202 204 206 206 210 218 226 236 244 247 252 258 267 277 283 287 292 303 313 314 314 314 313 309 303 300 298 301 308 312 313 311 307 305 303 303 305 303 300 297 295 295 295 293 290 284 279 274 273 273 268 267 268 263 258 254 256 261 249 233 230 228 222 215 205
172 171 174 173 175 182 185 188 188 189 191 188 191 191 192 196 197 204 209 207 211 213 216 217 216 225 233 243 252 252 255 261 268 273 277 284 290 303 321 327 325 321 318 311 305 302 301 303 309 312 311 308 306 303 300 302 304 302 298 296 297 300 303 306 303 295 285 274 268 265 259 256 262 265 263 257 251 251 250 240 234 235 230 219 214
175 174 178 181 179 183 187 190 191 195 196 193 194 195 197 199 198 205 211 214 220 219 223 227 227 234 243 248 252 254 254 256 264 270 278 286 294 302 310 324 328 323 317 311 306 304 303 305 306 307 308 306 306 303 302 304 304 300 297 298 301 305 309 312 312 307 297 279 266 260 256 252 255 262 265 263 256 250 247 243 238 239 238 227 222
183 181 180 186 187 187 193 196 197 198 199 197 197 197 200 203 203 208 212 218 229 229 227 230 233 241 252 254 252 255 255 256 261 266 279 291 301 308 300 302 313 312 310 308 306 305 303 302 303 304 305 306 306 304 304 304 300 298 300 302 305 309 313 316 317 315 311 291 268 258 255 251 251 258 263 264 262 257 248 242 240 241 242 236 231
187 185 183 187 190 193 199 203 205 206 205 205 206 204 205 210 211 214 219 225 233 236 233 235 238 244 256 261 262 263 262 267 267 264 273 287 298 308 306 299 296 298 303 303 302 305 305 302 304 305 306 307 305 303 303 300 297 299 302 303 306 310 315 320 322 322 321 309 281 259 254 252 252 254 259 262 264 260 251 240 238 240 240 239 234
186 189 189 189 192 197 202 204 208 210 210 212 213 212 212 216 218 220 227 233 236 240 239 242 249 252 255 257 264 266 263 267 270 268 273 291 299 302 304 298 295 298 302 303 303 304 304 302 302 304 305 304 301 300 299 297 296 300 302 303 304 309 314 319 324 327 328 321 299 267 256 253 254 254 254 257 260 259 254 244 241 242 238 232 232
187 193 194 193 195 199 204 206 209 210 212 216 216 217 219 220 222 225 227 231 231 232 233 241 251 254 255 255 259 264 264 268 274 274 280 298 295 289 291 288 291 293 294 298 298 300 301 298 297 299 299 297 295 295 294 294 295 298 300 301 302 306 312 316 322 328 332 324 302 274 259 253 251 250 250 253 256 257 255 249 246 247 241 228 227
192 195 194 195 199 202 206 208 209 211 213 217 219 220 222 222 223 223 222 222 220 222 224 230 242 248 256 261 264 269 271 275 279 279 282 285 282 288 290 286 284 282 287 291 289 295 298 294 294 295 293 291 290 289 289 292 294 297 297 298 301 303 307 311 318 324 329 326 307 278 260 252 247 245 245 244 246 251 251 249 248 246 242 235 231
200 197 195 198 204 206 208 211 212 214 216 220 224 225 225 224 221 220 224 223 217 225 227 228 241 249 254 261 268 275 278 281 282 281 282 278 283 295 289 279 273 274 285 289 286 291 292 288 290 290 288 288 288 287 290 294 297 301 301 300 300 300 300 303 312 322 324 322 314 300 277 252 244 241 241 239 236 242 245 245 248 246 243 241 237
206 203 202 204 207 209 211 213 215 217 219 223 227 229 231 225 221 226 233 230 220 229 232 228 239 250 255 261 267 275 279 282 284 286 289 283 282 285 277 273 274 279 291 290 286 287 285 284 287 287 287 289 291 292 295 299 302 304 307 309 305 300 299 298 305 318 321 321 321 313 305 289 267 249 244 245 238 236 240 242 246 248 249 249 246
211 209 209 209 211 212 211 212 214 217 219 223 226 231 233 226 225 228 228 231 233 237 235 230 238 245 250 253 255 264 269 272 276 280 286 285 281 273 268 276 285 292 293 288 286 285 282 284 288 290 291 293 293 295 298 300 301 302 307 314 312 303 300 298 303 313 315 316 318 322 321 312 273 252 249 255 246 237 236 238 242 246 252 255 256
215 214 214 215 215 214 213 212 212 214 218 224 226 230 233 228 228 228 221 226 240 244 236 233 237 240 244 244 243 248 254 263 268 272 282 282 275 269 270 278 286 288 285 282 281 281 284 289 292 292 290 291 292 294 298 298 298 299 302 309 311 306 301 300 302 305 306 303 305 322 314 295 268 247 245 248 252 245 237 235 238 242 250 256 256
221 222 224 223 221 220 217 214 213 215 218 224 225 228 231 227 227 228 221 220 235 243 240 237 236 237 240 238 243 252 253 259 264 268 274 274 273 267 267 272 273 273 275 275 276 279 288 293 293 290 287 288 289 291 294 294 296 297 297 304 310 308 303 303 303 297 293 289 285 259 248 269 269 262 259 252 248 252 244 236 234 233 241 253 256
226 229 232 230 227 226 223 219 218 217 218 222 223 223 224 221 220 221 218 216 227 238 244 244 240 241 242 239 246 256 258 259 264 270 265 264 273 264 257 267 273 271 271 272 277 283 290 290 286 285 285 284 284 286 289 292 297 297 296 301 306 306 302 297 296 294 293 284 280 263 226 235 247 245 248 260 256 255 257 249 239 227 228 240 249
231 234 235 233 231 230 231 225 220 219 219 220 220 218 218 215 214 219 219 215 220 228 235 237 233 233 239 246 255 256 258 262 261 264 259 252 257 251 248 261 271 273 274 277 282 285 285 282 281 282 282 278 276 279 283 288 295 295 296 302 304 304 303 297 296 296 292 284 281 279 271 264 269 268 257 254 254 253 254 252 246 235 229 229 234
236 239 239 237 233 233 236 228 219 221 221 219 217 214 213 215 213 214 213 207 211 222 225 228 228 224 225 241 254 250 248 244 235 237 240 233 232 240 253 262 265 270 275 278 281 283 282 281 281 281 279 276 272 271 273 279 284 285 292 299 297 298 305 304 307 312 303 298 293 284 291 302 302 302 295 282 268 254 247 244 239 238 239 237 235
237 238 239 237 235 236 237 227 220 223 221 219 217 209 209 215 211 207 210 211 214 220 223 229 232 230 230 235 237 234 226 216 214 221 223 217 215 233 255 262 262 266 271 278 286 291 292 290 286 280 276 275 273 269 269 272 274 276 284 290 292 306 318 304 305 312 304 304 300 293 303 312 307 307 304 300 290 273 262 257 252 247 244 245 246
237 238 239 237 237 235 230 220 217 221 220 217 213 206 206 212 210 211 220 223 221 220 221 224 224 223 225 221 216 215 207 199 203 208 208 206 209 228 244 255 261 269 287 306 311 307 304 302 295 287 281 277 276 276 274 272 270 269 274 280 285 302 307 296 304 303 288 285 286 290 301 305 305 308 306 303 299 290 279 272 267 263 258 256 257
237 238 238 237 235 228 218 214 214 217 216 212 208 204 203 206 209 215 219 219 218 218 217 212 207 202 199 196 196 198 192 186 185 185 188 185 180 199 224 258 303 349 354 346 337 326 320 316 307 303 300 295 291 289 284 279 275 268 262 265 264 252 254 275 289 280 275 279 284 294 304 306 307 306 304 304 301 298 293 287 281 276 273 271 269
236 237 236 233 228 220 215 214 213 214 212 206 205 202 200 202 205 208 210 214 218 213 203 193 186 184 185 183 179 176 171 165 160 157 154 142 126 108 60 34 28 23 11 360 350 337 330 325 317 314 312 308 305 299 292 285 280 274 263 258 257 251 248 252 258 264 273 284 293 301 306 311 315 310 305 302 299 298 297 295 293 289 285 281 278
233 234 234 228 222 217 216 216 213 213 206 199 200 201 200 201 200 201 205 207 204 194 184 179 176 175 175 171 164 158 152 146 139 133 120 103 86 59 42 34 27 17 6 359 350 341 335 330 323 317 312 311 311 307 304 298 291 285 276 265 255 248 246 247 253 264 276 286 294 298 299 307 313 310 305 302 299 298 299 299 298 295 292 290 287
230 230 230 225 219 217 216 214 211 207 198 194 197 200 200 199 197 195 192 188 182 177 175 174 171 167 163 160 155 148 144 139 132 123 110 94 69 46 35 28 22 13 4 356 347 343 337 329 324 318 312 311 312 309 308 304 297 287 273 267 260 250 249 253 256 261 271 281 286 291 298 303 305 303 304 305 302 298 298 299 299 297 295 292 291
225 224 224 221 216 216 214 210 203 197 191 191 195 198 196 194 193 186 180 178 176 174 173 170 166 162 161 159 155 151 147 144 139 132 121 101 68 40 25 18 14 9 5 357 347 341 336 328 323 318 314 310 305 300 297 294 291 286 275 266 267 271 270 265 261 259 265 275 278 281 290 295 295 296 303 308 307 304 303 301 299 298 296 294 291
221 218 217 215 212 211 211 207 200 193 189 190 193 193 190 188 187 184 181 180 178 176 175 172 167 165 164 162 161 158 154 153 151 144 130 104 62 29 14 7 4 2 360 357 349 340 334 328 322 316 314 308 298 290 286 285 287 288 286 279 279 284 284 279 276 273 274 280 283 284 287 294 298 296 295 298 301 303 303 303 301 299 295 294 292